Stations météo

réclame
Mon MeteoGroup
Svenska Hogarna A, Suède (2498): Température de l'air & dewpoint: 01.08.2020 18:00:00 - 07.08.2020 18:00:00 (CEST)Svenska Hogarna A, Suède (2498): Vitesse du vent & gusts: 01.08.2020 18:00:00 - 07.08.2020 18:00:00 (CEST)Svenska Hogarna A, Suède (2498): Direction du vent: 01.08.2020 18:00:00 - 07.08.2020 18:00:00 (CEST)Svenska Hogarna A, Suède (2498): reduced air pressure: 01.08.2020 18:00:00 - 07.08.2020 18:00:00 (CEST)Svenska Hogarna A, Suède (2498): visibility: 01.08.2020 18:00:00 - 07.08.2020 18:00:00 (CEST)Svenska Hogarna A, Suède (2498): Quantités de précipitations: 01.08.2020 18:00:00 - 07.08.2020 18:00:00 (CEST)
Date & Time tt [°C] td [°C] ff [km/h] ff [knt] fx [km/h] fx [knt] dd ppp [hPa] vv [km] rr [mm]
07.08.2020 18:00:00 - - - - - - - - - -
07.08.2020 17:00:00 20,0 16,8 19 11 25 14 S 1026,3 48 0,0
07.08.2020 16:00:00 20,0 16,6 18 10 23 13 S 1026,6 40 0,0
07.08.2020 15:00:00 20,2 16,8 17 9 23 12 S 1026,9 37 0,0
07.08.2020 14:00:00 20,1 17,3 16 9 21 12 S 1027,0 31 0,0
07.08.2020 13:00:00 20,0 17,4 13 7 17 9 S 1027,2 29 0,0
07.08.2020 12:00:00 19,8 17,0 10 5 14 7 S 1027,2 29 0,0
07.08.2020 11:00:00 19,7 17,5 10 6 13 7 S 1027,3 26 0,0
07.08.2020 10:00:00 19,3 16,9 8 5 15 8 S 1027,1 26 0,0
07.08.2020 09:00:00 18,9 16,5 10 5 13 7 S 1027,0 39 0,0
07.08.2020 08:00:00 20,3 17,1 2 1 5 3 S 1026,7 35 0,0
07.08.2020 07:00:00 18,8 16,6 6 3 13 7 WSW 1026,6 39 0,0
07.08.2020 06:00:00 17,2 16,6 12 7 15 8 WSW 1026,2 21 0,0
07.08.2020 05:00:00 16,6 16,3 11 6 14 8 SW 1025,9 12 0,0
07.08.2020 04:00:00 16,4 16,1 10 6 12 6 SW 1025,7 11 0,0
07.08.2020 03:00:00 16,9 16,4 10 6 16 9 SW 1025,5 13 0,0
07.08.2020 02:00:00 17,1 16,3 13 7 19 10 SW 1025,3 21 0,0
07.08.2020 01:00:00 17,1 16,3 13 7 16 9 SSW 1025,0 18 0,0
07.08.2020 00:00:00 17,4 15,9 13 7 16 9 SSW 1024,9 36 0,0
06.08.2020 23:00:00 17,6 16,1 14 8 22 12 SW 1024,5 38 0,0
06.08.2020 22:00:00 17,7 16,0 18 10 29 16 SW 1024,1 31 0,0
06.08.2020 21:00:00 18,0 16,2 19 11 26 14 SW 1023,7 45 0,0
06.08.2020 20:00:00 18,2 16,4 22 12 27 15 SW 1023,2 39 0,0
06.08.2020 19:00:00 18,8 16,4 22 12 32 17 SW 1023,0 33 0,0
06.08.2020 18:00:00 19,4 16,6 24 13 31 17 SW 1022,5 33 0,0
06.08.2020 17:00:00 19,3 16,3 24 13 32 18 SW 1022,3 33 0,0
06.08.2020 16:00:00 19,3 16,5 23 12 34 18 SSW 1022,0 35 0,0
06.08.2020 15:00:00 19,7 16,2 22 12 29 16 SSW 1021,8 40 0,0
06.08.2020 14:00:00 18,9 16,1 19 11 30 16 SW 1021,6 46 0,0
06.08.2020 13:00:00 19,0 15,9 23 12 30 16 SW 1021,3 41 0,0
06.08.2020 12:00:00 18,8 15,9 23 12 32 17 SW 1020,7 42 0,0
06.08.2020 11:00:00 18,2 15,8 20 11 29 15 SW 1020,3 31 0,0
06.08.2020 10:00:00 17,9 15,7 18 10 24 13 SW 1019,8 48 0,0
06.08.2020 09:00:00 17,9 15,5 16 8 - - SW 1019,2 43 0,0
06.08.2020 08:00:00 17,0 15,3 21 11 27 15 WSW 1018,7 13 0,0
06.08.2020 07:00:00 17,0 15,0 24 13 31 17 SW 1018,0 42 0,0
06.08.2020 06:00:00 16,9 15,1 20 11 36 19 SW 1017,4 32 0,0
06.08.2020 05:00:00 17,0 15,0 27 15 42 23 SW 1017,3 32 0,0
06.08.2020 04:00:00 17,0 15,0 31 17 40 21 SW 1016,9 33 0,0
06.08.2020 03:00:00 17,1 14,7 31 17 41 22 SW 1016,7 39 0,0
06.08.2020 02:00:00 17,2 14,8 27 15 40 21 SSW 1016,5 43 0,0
06.08.2020 01:00:00 17,2 14,8 28 15 37 20 SSW 1016,5 42 0,0
06.08.2020 00:00:00 17,2 14,3 24 13 35 19 SSW 1016,6 42 0,0
05.08.2020 23:00:00 17,1 14,6 26 14 38 20 SSW 1016,4 47 0,0
05.08.2020 22:00:00 17,0 14,3 28 15 37 20 SW 1016,4 41 0,0
05.08.2020 21:00:00 17,0 14,3 27 15 37 20 SSW 1016,1 45 0,0
05.08.2020 20:00:00 17,1 13,8 27 15 40 21 SSW 1016,0 46 0,0
05.08.2020 19:00:00 17,1 14,0 32 17 45 24 SSW 1015,9 39 0,0
05.08.2020 18:00:00 17,3 12,4 35 19 45 25 SSW 1015,7 38 0,0
05.08.2020 17:00:00 18,1 12,1 35 19 47 26 SW 1015,6 43 0,0
05.08.2020 16:00:00 17,8 11,4 34 18 49 26 SW 1015,4 41 0,0
05.08.2020 15:00:00 17,3 11,1 37 20 50 27 SW 1015,2 36 0,0
05.08.2020 14:00:00 17,3 11,3 36 19 49 26 SSW 1015,1 41 0,0
05.08.2020 13:00:00 16,6 10,9 35 19 - - SW 1014,8 42 0,0
05.08.2020 12:00:00 17,9 10,0 31 17 43 23 SW 1014,8 38 0,0
05.08.2020 11:00:00 17,3 9,9 32 18 41 22 SW 1014,6 41 0,0
05.08.2020 10:00:00 17,1 9,3 25 13 32 17 WSW 1014,2 44 0,0
05.08.2020 09:00:00 16,5 11,0 18 10 29 16 WSW 1013,9 42 0,0
05.08.2020 08:00:00 16,4 12,0 20 11 31 17 W 1013,3 41 0,0
05.08.2020 07:00:00 15,7 11,3 20 11 30 16 W 1012,7 46 0,0
05.08.2020 06:00:00 16,2 11,1 24 13 29 16 W 1012,4 48 0,0
05.08.2020 05:00:00 15,9 11,9 23 12 31 17 W 1012,1 45 0,0
05.08.2020 04:00:00 16,1 11,5 23 12 29 15 WNW 1011,7 50 0,0
05.08.2020 03:00:00 15,9 13,7 14 8 18 10 W 1011,2 49 0,0
05.08.2020 02:00:00 16,1 13,6 10 5 14 7 WSW 1011,0 50 0,0
05.08.2020 01:00:00 16,3 14,0 11 6 21 11 WSW 1010,9 45 0,0
05.08.2020 00:00:00 16,5 14,1 18 10 23 12 SSW 1010,8 50 0,0
04.08.2020 23:00:00 16,8 14,3 15 8 19 11 SSW 1010,7 50 0,0
04.08.2020 22:00:00 16,9 14,5 14 8 17 9 S 1010,5 50 0,0
04.08.2020 21:00:00 16,9 14,2 9 5 10 6 SE 1010,6 48 0,0
04.08.2020 20:00:00 17,4 13,3 7 4 9 5 SSE 1010,4 40 0,0
04.08.2020 19:00:00 17,8 13,5 7 4 12 6 S 1009,9 50 0,0
04.08.2020 18:00:00 18,0 13,5 9 5 16 9 S 1009,6 46 0,0
04.08.2020 17:00:00 18,3 13,2 13 7 16 9 S 1009,6 48 0,0
04.08.2020 16:00:00 18,2 11,5 13 7 16 9 S 1009,5 44 0,0
04.08.2020 15:00:00 18,3 11,1 12 7 16 9 S 1009,5 37 0,0
04.08.2020 14:00:00 18,8 12,8 11 6 14 8 S 1009,4 37 0,0
04.08.2020 13:00:00 18,0 12,0 8 4 12 7 S 1009,3 48 0,0
04.08.2020 12:00:00 17,6 11,4 7 4 - - WNW 1009,1 42 0,0
04.08.2020 11:00:00 17,9 11,7 9 5 13 7 W 1009,0 35 0,0
04.08.2020 10:00:00 17,2 11,7 9 5 14 8 W 1008,8 47 0,0
04.08.2020 09:00:00 16,4 11,8 10 5 16 9 WNW 1008,5 43 0,0
04.08.2020 08:00:00 16,2 11,6 14 8 19 10 WNW 1008,0 46 0,0
04.08.2020 07:00:00 16,0 11,8 17 9 25 14 WNW 1008,0 50 0,0
04.08.2020 06:00:00 15,8 12,4 21 11 25 13 WNW 1007,6 50 0,0
04.08.2020 05:00:00 15,6 12,4 17 9 27 15 W 1007,6 50 0,0
04.08.2020 04:00:00 16,0 12,4 24 13 29 15 W 1007,7 49 0,0
04.08.2020 03:00:00 16,5 12,8 21 11 29 16 WSW 1007,7 50 0,0
04.08.2020 02:00:00 16,2 14,0 16 9 23 12 WSW 1007,5 49 0,0
04.08.2020 01:00:00 16,2 14,7 16 9 27 15 SW 1007,4 37 0,0
04.08.2020 00:00:00 16,2 14,7 23 13 32 17 SW 1007,2 34 0,0
03.08.2020 23:00:00 16,5 14,7 25 13 31 17 SW 1007,0 37 0,0
03.08.2020 22:00:00 16,6 14,8 22 12 34 18 SW 1006,9 41 0,0
03.08.2020 21:00:00 16,9 14,5 28 15 42 23 SW 1006,6 35 0,0
03.08.2020 20:00:00 17,2 14,1 34 18 45 25 SW 1006,4 26 0,0
03.08.2020 19:00:00 17,6 13,7 34 19 47 26 SW 1006,1 35 0,0
03.08.2020 18:00:00 17,8 13,7 34 18 48 26 SW 1005,9 35 0,0
03.08.2020 17:00:00 18,2 13,5 37 20 51 28 SW 1006,0 32 0,0
03.08.2020 16:00:00 17,9 12,6 37 20 - - SW 1006,1 29 0,0
03.08.2020 15:00:00 18,0 13,1 37 20 49 26 SW 1006,1 29 0,0
03.08.2020 14:00:00 18,0 13,1 35 19 47 25 SSW 1006,0 32 0,0
03.08.2020 13:00:00 17,7 14,0 33 18 45 24 SW 1005,9 41 0,0
03.08.2020 12:00:00 17,6 13,1 33 18 41 22 SSW 1005,8 36 0,0
03.08.2020 11:00:00 17,5 13,2 28 15 37 20 SW 1005,8 40 0,0
03.08.2020 10:00:00 17,0 12,1 26 14 - - WSW 1005,7 38 0,0
03.08.2020 09:00:00 16,3 12,7 27 14 36 20 WSW 1005,7 37 0,0
03.08.2020 08:00:00 16,0 13,1 23 13 34 18 WSW 1005,4 44 0,0
03.08.2020 07:00:00 15,8 13,3 29 15 40 22 WSW 1005,4 45 0,0
03.08.2020 06:00:00 15,7 13,2 27 15 39 21 WSW 1005,5 38 0,0
03.08.2020 05:00:00 15,7 13,4 27 15 37 20 W 1005,4 34 0,0
03.08.2020 04:00:00 16,3 14,8 21 11 26 14 W 1005,4 47 0,0
03.08.2020 03:00:00 16,4 16,1 16 9 22 12 WSW 1005,5 15 0,0
03.08.2020 02:00:00 16,6 16,3 19 10 32 17 WSW 1005,5 14 0,5
03.08.2020 01:00:00 16,8 16,3 26 14 35 19 SSW 1005,8 11 0,7
03.08.2020 00:00:00 16,9 16,1 27 15 37 20 SSW 1005,8 15 0,0
02.08.2020 23:00:00 16,8 15,7 29 16 37 20 SSW 1006,1 18 0,0
02.08.2020 22:00:00 17,3 15,3 24 13 36 19 SSW 1006,6 35 0,0
02.08.2020 21:00:00 17,4 14,9 24 13 33 18 SSW 1006,7 46 0,0
02.08.2020 20:00:00 17,4 15,4 22 12 - - S 1007,3 40 0,0
02.08.2020 19:00:00 17,7 15,3 22 12 31 17 S 1007,7 35 0,0
02.08.2020 18:00:00 18,0 15,3 26 14 33 18 S 1008,2 42 0,0
02.08.2020 17:00:00 18,0 14,9 25 14 34 18 SSW 1008,8 29 0,0
02.08.2020 16:00:00 18,4 14,5 26 14 38 20 SSW 1009,3 35 0,0
02.08.2020 15:00:00 19,0 14,3 26 14 40 21 SSW 1009,6 40 0,0
02.08.2020 14:00:00 19,9 14,9 29 16 39 21 SSW 1009,7 34 0,0
02.08.2020 13:00:00 19,3 15,2 26 14 38 21 SW 1009,9 41 0,0
02.08.2020 12:00:00 19,0 15,3 29 16 41 22 SW 1010,2 40 0,0
02.08.2020 11:00:00 19,1 15,6 27 15 36 20 SSW 1010,5 37 0,0
02.08.2020 10:00:00 18,2 16,0 27 15 35 19 SSW 1010,6 32 0,0
02.08.2020 09:00:00 17,6 15,8 23 12 31 17 SSW 1010,9 41 0,0
02.08.2020 08:00:00 17,3 15,6 21 11 30 16 S 1011,3 36 0,0
02.08.2020 07:00:00 17,0 15,5 22 12 27 15 SSW 1011,7 36 0,0
02.08.2020 06:00:00 16,5 15,4 20 11 28 15 SSW 1012,1 31 0,0
02.08.2020 05:00:00 16,5 15,9 21 11 27 15 SSW 1012,5 22 0,0
02.08.2020 04:00:00 16,3 15,7 21 11 - - SSW 1013,0 29 0,0
02.08.2020 03:00:00 16,4 15,9 21 11 28 15 SSW 1013,5 26 0,0
02.08.2020 02:00:00 16,3 15,8 20 11 28 15 SSW 1014,0 25 0,0
02.08.2020 01:00:00 16,2 15,7 19 11 26 14 SSW 1014,6 29 0,0
02.08.2020 00:00:00 16,4 15,8 19 10 25 13 SSW 1014,9 25 0,0
01.08.2020 23:00:00 16,5 15,7 18 10 - - SSW 1015,1 31 0,0
01.08.2020 22:00:00 16,6 16,0 16 9 23 13 SSW 1015,4 21 0,0
01.08.2020 21:00:00 16,7 15,9 16 9 21 12 S 1015,7 21 0,0
01.08.2020 20:00:00 17,2 15,9 15 8 21 11 S 1016,2 29 0,0
01.08.2020 19:00:00 17,7 15,9 16 9 20 11 S 1016,5 32 0,0
01.08.2020 18:00:00 17,9 15,5 13 7 17 9 S 1016,8 33 0,0

tt = Température de l'air
td = dewpoint
ff = Vitesse du vent
fx = gusts
dd = Direction du vent
ppp = reduced air pressure
vv = visibility
rr = Quantités de précipitations

stations d'obs. à proximité